Laredo, TX

10:52 AM CDT on July 23, 2016 (GMT -0500)
Laredo International

Weather History for KLRD - October, 2013

Change the Weather History Date:

Friday, October 4, 2013

  Actual Average Record
Temperature  
Mean Temperature 85 °F 79 °F  
Max Temperature 95 °F 89 °F 103 °F (1956)
Min Temperature 74 °F 68 °F 47 °F (1975)
Degree Days  
Heating Degree Days 0 0  
Month to date heating degree days 0 0  
Since 1 July heating degree days 0 1  
Cooling Degree Days 20 14  
Month to date cooling degree days 80 56  
Year to date cooling degree days 4045 3841  
Growing Degree Days 34 (Base 50)    
Moisture  
Dew Point 71 °F    
Average Humidity 71    
Maximum Humidity 97    
Minimum Humidity 39    
Precipitation  
Precipitation 0.00 in 0.08 in 3.12 in (1968)
Month to date precipitation 0.00 0.33  
Year to date precipitation 16.22 16.25  
Sea Level Pressure  
Sea Level Pressure 29.85 in    
Wind  
Wind Speed 10 mph (SE)    
Max Wind Speed 18 mph    
Max Gust Speed 21 mph    
Visibility 10 miles    
Events      
T = Trace of Precipitation, MM = Missing Value Source: NWS Daily Summary

Daily Weather History Graph

Daily Weather History Graph

Search for Another Location

Airport or City:

Trip Planner

Search our weather history database for the weather conditions in past years. The results will help you decide how hot, cold, wet, or windy it might be!

Date:

Astronomy

Oct. 04, 2013 Rise Set
Actual Time 7:32 AM CDT 7:20 PM CDT
Civil Twilight 7:08 AM CDT 7:43 PM CDT
Nautical Twilight 6:41 AM CDT 8:10 PM CDT
Astronomical Twilight 6:14 AM CDT 8:37 PM CDT
Moon 7:08 AM CDT (10/4) 7:07 PM CDT (10/4)
Length of Visible Light 12h 34m
Length of Day
11h 48m
Waning Crescent, 0% of the Moon is Illuminated
Oct 4
Waning Crescent
Oct 4
New
Oct 11
First Quarter
Oct 18
Full
Oct 26
Last Quarter

Hourly Weather History & Observations

Time (CDT) Temp. Heat Index Dew Point Humidity Pressure Visibility Wind Dir Wind Speed Gust Speed Precip Events Conditions
12:56 AM 79.0 °F - 70.9 °F 76% 29.86 in 10.0 mi SE 10.4 mph - N/A   Clear
1:56 AM 77.0 °F - 70.9 °F 81% 29.86 in 10.0 mi SE 8.1 mph - N/A   Clear
2:56 AM 75.9 °F - 70.9 °F 84% 29.85 in 10.0 mi SE 6.9 mph - N/A   Clear
3:56 AM 74.8 °F - 70.9 °F 87% 29.84 in 10.0 mi SE 5.8 mph - N/A   Clear
4:56 AM 74.8 °F - 72.0 °F 91% 29.84 in 10.0 mi SE 6.9 mph - N/A   Clear
5:56 AM 73.9 °F - 72.0 °F 93% 29.85 in 10.0 mi SE 6.9 mph - N/A   Clear
6:56 AM 73.9 °F - 72.9 °F 96% 29.85 in 10.0 mi SE 8.1 mph - N/A   Clear
7:03 AM 73.4 °F - 73.4 °F 100% 29.89 in 10.0 mi SE 6.9 mph - N/A   Partly Cloudy
7:56 AM 73.9 °F - 72.9 °F 96% 29.86 in 10.0 mi SSE 8.1 mph - N/A   Clear
8:04 AM 73.4 °F - 73.4 °F 100% 29.89 in 10.0 mi SE 8.1 mph - N/A   Partly Cloudy
8:56 AM 77.0 °F - 72.9 °F 87% 29.88 in 10.0 mi SSE 8.1 mph - N/A   Scattered Clouds
9:10 AM 78.8 °F - 73.4 °F 83% 29.91 in 10.0 mi SE 10.4 mph - N/A   Mostly Cloudy
9:45 AM 78.8 °F - 73.4 °F 83% 29.92 in 10.0 mi SSE 11.5 mph - N/A   Mostly Cloudy
9:56 AM 79.0 °F - 72.0 °F 79% 29.89 in 10.0 mi South 10.4 mph - N/A   Mostly Cloudy
10:17 AM 80.6 °F 85.4 °F 73.4 °F 79% 29.93 in 10.0 mi SSE 11.5 mph - N/A   Overcast
10:37 AM 80.6 °F 84.6 °F 71.6 °F 74% 29.93 in 10.0 mi South 11.5 mph - N/A   Scattered Clouds
10:56 AM 82.9 °F 88.5 °F 72.9 °F 71% 29.89 in 10.0 mi South 10.4 mph - N/A   Partly Cloudy
11:56 AM 86.9 °F 94.1 °F 72.9 °F 63% 29.88 in 10.0 mi South 12.7 mph - N/A   Scattered Clouds
12:56 PM 88.9 °F 94.7 °F 70.9 °F 55% 29.86 in 10.0 mi SSE 15.0 mph - N/A   Partly Cloudy
1:56 PM 91.9 °F 96.9 °F 68.9 °F 47% 29.83 in 10.0 mi SE 11.5 mph - N/A   Clear
2:56 PM 92.8 °F 97.1 °F 68.0 °F 44% 29.80 in 10.0 mi SSE 9.2 mph - N/A   Clear
3:56 PM 93.9 °F 98.6 °F 68.0 °F 43% 29.79 in 10.0 mi SE 11.5 mph 19.6 mph N/A   Clear
4:56 PM 95.0 °F 99.0 °F 66.9 °F 40% 29.78 in 10.0 mi SSE 15.0 mph - N/A   Clear
5:56 PM 93.9 °F 96.5 °F 65.8 °F 39% 29.78 in 10.0 mi SE 16.1 mph - N/A   Clear
6:56 PM 91.9 °F 94.5 °F 65.8 °F 42% 29.78 in 10.0 mi SE 12.7 mph - N/A   Clear
7:56 PM 88.9 °F 91.8 °F 66.9 °F 48% 29.80 in 10.0 mi SE 9.2 mph - N/A   Clear
8:56 PM 86.0 °F 88.8 °F 66.9 °F 53% 29.82 in 10.0 mi ESE 8.1 mph - N/A   Clear
9:56 PM 84.9 °F 90.1 °F 70.9 °F 63% 29.83 in 10.0 mi SE 12.7 mph - N/A   Clear
10:56 PM 83.8 °F 88.6 °F 70.9 °F 65% 29.85 in 10.0 mi SE 12.7 mph - N/A   Clear
11:56 PM 81.9 °F 86.0 °F 70.9 °F 69% 29.85 in 10.0 mi SE 12.7 mph - N/A   Clear